Weather History for Rotterdam, Netherlands

Change the Weather History Date:

Saturday, April 13, 2013

  Actual Average Record
Temperature  
Mean Temperature 49 °F -  
Max Temperature 58 °F 58 °F 71 °F (2007)
Min Temperature 40 °F 43 °F 32 °F (2001)
Degree Days  
Heating Degree Days 16    
Moisture  
Dew Point 44 °F    
Average Humidity 85    
Maximum Humidity 100    
Minimum Humidity 45    
Precipitation  
Precipitation 0.01 in - - ()
Sea Level Pressure  
Sea Level Pressure 29.93 in    
Wind  
Wind Speed 11 mph ()    
Max Wind Speed 20 mph    
Max Gust Speed 31 mph    
Visibility 4.5 miles    
Events Fog , Rain    
Averages and records for this station are not official NWS values.
T = Trace of Precipitation, MM = Missing Value Source: Averaged Metar Reports

Daily Weather History Graph

Daily Weather History Graph

Search for Another Location

Airport:

Trip Planner

Search our weather history database for the weather conditions in past years. The results will help you decide how hot, cold, wet, or windy it might be!

Date:

Astronomy

Apr. 13, 2013 Rise Set
Actual Time 6:49 AM CEST 8:36 PM CEST
Civil Twilight 6:14 AM CEST 9:12 PM CEST
Nautical Twilight 5:30 AM CEST 9:56 PM CEST
Astronomical Twilight 4:41 AM CEST 10:46 PM CEST
Moon 8:11 AM CEST (4/13) No Moon Set
Length of Visible Light 14h 57m
Length of Day
13h 46m
Waxing Crescent, 9% of the Moon is Illuminated
Apr 13
Waxing Crescent
Apr 18
First Quarter
Apr 25
Full
May 2
Last Quarter
May 10
New

Hourly Weather History & Observations

Time (CEST) Temp. Windchill Dew Point Humidity Pressure Visibility Wind Dir Wind Speed Gust Speed Precip Events Conditions
12:25 AM 42.8 °F 34.8 °F 42.8 °F 100% 29.65 in - West 17.3 mph - N/A   Overcast
12:55 AM 42.8 °F 35.4 °F 42.8 °F 100% 29.68 in - West 15.0 mph - N/A   Overcast
1:25 AM 41.0 °F 33.9 °F 41.0 °F 100% 29.71 in 0.7 mi West 12.7 mph - N/A   Overcast
1:55 AM 41.0 °F 34.7 °F 41.0 °F 100% 29.71 in 1.1 mi West 10.4 mph - N/A   Overcast
2:00 AM 41 °F - 41 °F 100% 29.74 in 1 mi West 11.2 mph - - Fog Fog
2:25 AM 41.0 °F 34.3 °F 41.0 °F 100% 29.74 in 1.0 mi West 11.5 mph - N/A   Overcast
2:55 AM 41.0 °F 35.8 °F 41.0 °F 100% 29.77 in 0.7 mi West 8.1 mph - N/A   Overcast
3:25 AM 41.0 °F 36.4 °F 41.0 °F 100% 29.77 in 1.0 mi West 6.9 mph - N/A   Overcast
3:55 AM 41.0 °F 35.8 °F 41.0 °F 100% 29.80 in 0.5 mi WSW 8.1 mph - N/A Fog Fog
4:25 AM 41.0 °F 35.8 °F 41.0 °F 100% 29.80 in 0.5 mi WSW 8.1 mph - N/A Fog Fog
4:55 AM 41.0 °F 36.4 °F 41.0 °F 100% 29.80 in 0.6 mi West 6.9 mph - N/A Fog Fog
5:00 AM 42 °F - 42 °F 98% 29.83 in 1 mi West 6.7 mph - - Fog Fog
5:25 AM 41.0 °F 37.1 °F 41.0 °F 100% 29.83 in 1.2 mi West 5.8 mph - N/A   Overcast
5:55 AM 42.8 °F 40.1 °F 42.8 °F 100% 29.83 in 1.2 mi WSW 4.6 mph - N/A   Overcast
6:25 AM 42.8 °F 39.3 °F 42.8 °F 100% 29.83 in 1.3 mi SW 5.8 mph - N/A   Overcast
6:55 AM 42.8 °F 38.6 °F 42.8 °F 100% 29.86 in 1.4 mi SW 6.9 mph - N/A   Overcast
7:25 AM 42.8 °F 39.3 °F 42.8 °F 100% 29.86 in - SSW 5.8 mph - N/A   Overcast
7:55 AM 44.6 °F 40.7 °F 42.8 °F 93% 29.89 in - South 6.9 mph - N/A   Overcast
8:00 AM 44 °F - 43 °F 96% 29.90 in 3 mi South 6.7 mph - -   Mist
8:25 AM 44.6 °F 39.7 °F 42.8 °F 93% 29.89 in 3.1 mi SSW 9.2 mph - N/A   Overcast
8:55 AM 44.6 °F 38.8 °F 42.8 °F 93% 29.92 in 5.0 mi SW 11.5 mph - N/A   Unknown
9:25 AM 46.4 °F 41.5 °F 42.8 °F 87% 29.92 in 5.0 mi SW 10.4 mph - N/A   Partly Cloudy
9:55 AM 46.4 °F 40.4 °F 42.8 °F 87% 29.95 in 6.2 mi SW 13.8 mph - N/A   Partly Cloudy
10:25 AM 46.4 °F 40.7 °F 42.8 °F 87% 29.95 in 6.2 mi SW 12.7 mph - N/A   Partly Cloudy
10:55 AM 48.2 °F - 44.6 °F 87% 29.98 in 6.2 mi SW 12.7 mph - N/A   Overcast
11:00 AM 48 °F - 44 °F 81% 29.99 in 6 mi SW 13.4 mph - -   Mist
11:25 AM 48.2 °F - 44.6 °F 87% 29.98 in 5.0 mi SW 16.1 mph - N/A   Overcast
11:55 AM 50.0 °F - 44.6 °F 82% 30.01 in 5.6 mi SW 12.7 mph - N/A   Mostly Cloudy
12:25 PM 50.0 °F - 44.6 °F 82% 30.01 in 6.2 mi WSW 16.1 mph - N/A   Overcast
12:55 PM 51.8 °F - 46.4 °F 82% 30.01 in 6.2 mi SW 17.3 mph - N/A   Mostly Cloudy
1:25 PM 53.6 °F - 44.6 °F 72% 30.01 in 6.2 mi SW 16.1 mph - N/A   Mostly Cloudy
1:55 PM 53.6 °F - 46.4 °F 77% 30.01 in 6.2 mi SW 15.0 mph - N/A   Partly Cloudy
2:25 PM 55.4 °F - 46.4 °F 72% 30.01 in 6.2 mi SW 15.0 mph - N/A   Partly Cloudy
2:55 PM 55.4 °F - 42.8 °F 63% 30.01 in 6.2 mi SW 15.0 mph - N/A   Partly Cloudy
3:25 PM 55.4 °F - 42.8 °F 63% 30.01 in 6.2 mi SW 16.1 mph - N/A   Scattered Clouds
3:55 PM 55.4 °F - 42.8 °F 63% 30.01 in 6.2 mi SW 15.0 mph - N/A   Mostly Cloudy
4:25 PM 55.4 °F - 44.6 °F 67% 30.01 in 6.2 mi SW 11.5 mph - N/A   Mostly Cloudy
4:55 PM 57.2 °F - 41.0 °F 55% 30.01 in 6.2 mi SSW 11.5 mph - N/A   Partly Cloudy
5:00 PM 56 °F - 41 °F 45% 30.03 in 22 mi SSW 15.7 mph - -   Scattered Clouds
5:25 PM 59.0 °F - 41.0 °F 51% 30.01 in 6.2 mi SSW 11.5 mph - N/A   Partly Cloudy
5:55 PM 57.2 °F - 41.0 °F 55% 30.01 in 6.2 mi South 15.0 mph - N/A   Scattered Clouds
6:25 PM 57.2 °F - 41.0 °F 55% 30.01 in 6.2 mi South 12.7 mph - N/A   Unknown
6:55 PM 57.2 °F - 41.0 °F 55% 30.01 in 6.2 mi South 12.7 mph - N/A   Partly Cloudy
7:25 PM 53.6 °F - 44.6 °F 72% 30.01 in 6.2 mi SSW 19.6 mph 31.1 mph N/A   Light Drizzle
7:55 PM 51.8 °F - 46.4 °F 82% 30.04 in 6.2 mi South 11.5 mph - N/A Rain Light Rain
8:00 PM 52 °F - 47 °F 76% 30.04 in 9 mi South 11.2 mph - - Rain Light Rain Showers
8:25 PM 51.8 °F - 46.4 °F 82% 30.04 in 6.2 mi South 11.5 mph - N/A   Drizzle
8:55 PM 51.8 °F - 48.2 °F 88% 30.04 in 6.2 mi South 11.5 mph - N/A   Drizzle
9:25 PM 51.8 °F - 48.2 °F 88% 30.04 in 6.2 mi South 11.5 mph - N/A   Drizzle
9:55 PM 50.0 °F - 48.2 °F 94% 30.04 in 5.6 mi South 12.7 mph - N/A Rain Drizzle
10:25 PM 50.0 °F - 48.2 °F 94% 30.04 in 6.2 mi South 12.7 mph - N/A   Drizzle
10:55 PM 50.0 °F - 48.2 °F 94% 30.04 in 6.2 mi South 12.7 mph - N/A   Light Drizzle
11:00 PM 51 °F - 49 °F 91% 30.05 in 6 mi South 13.4 mph - - Rain Heavy Drizzle
11:25 PM 50.0 °F - 50.0 °F 100% 30.04 in 5.0 mi South 12.7 mph - N/A Rain Light Rain
11:55 PM 51.8 °F - 50.0 °F 94% 30.04 in 5.6 mi South 12.7 mph - N/A   Drizzle